| time (UTC) | temp C | wind direction | speed KPH | gust KPH | rain 1hr cm | rain 24hr cm | rain mn cm | humidity % | barometer mb |
| 20260505072334 | 13 | 68 | 0.0 | 0.0 | 0.03 | 0.46 | 0.10 | 78 | 1009.9 |
| 20260505071334 | 13 | 68 | 0.0 | 0.0 | 0.03 | 0.46 | 0.10 | 78 | 1010.0 |
| 20260505070334 | 13 | 69 | 0.0 | 0.0 | 0.03 | 0.46 | 0.10 | 78 | 1009.9 |
| 20260505065334 | 12 | 69 | 1.6 | 1.6 | 0.03 | 0.46 | 0.10 | 78 | 1010.0 |
| 20260505064334 | 12 | 69 | 0.0 | 4.8 | 0.03 | 0.46 | 0.10 | 78 | 1009.8 |
| 20260505063334 | 12 | 70 | 0.0 | 0.0 | 0.03 | 0.46 | 0.10 | 78 | 1010.0 |
| 20260505062334 | 12 | 70 | 0.0 | 0.0 | 0.00 | 0.43 | 0.08 | 79 | 1010.1 |
| 20260505061334 | 12 | 70 | 1.6 | 1.6 | 0.00 | 0.43 | 0.08 | 79 | 1010.2 |
| 20260505060334 | 12 | 70 | 0.0 | 4.8 | 0.00 | 0.43 | 0.08 | 79 | 1010.3 |
| 20260505055334 | 12 | 61 | 0.0 | 0.0 | 0.03 | 0.43 | 0.08 | 79 | 1010.4 |
| 20260505054334 | 12 | 61 | 0.0 | 0.0 | 0.03 | 0.43 | 0.08 | 78 | 1010.4 |
| 20260505053334 | 12 | 61 | 0.0 | 0.0 | 0.03 | 0.43 | 0.08 | 78 | 1010.4 |
| 20260505052334 | 12 | 61 | 0.0 | 0.0 | 0.05 | 0.43 | 0.08 | 78 | 1010.3 |
| 20260505051334 | 12 | 61 | 0.0 | 0.0 | 0.05 | 0.43 | 0.08 | 78 | 1010.3 |
| 20260505050334 | 12 | 61 | 0.0 | 0.0 | 0.05 | 0.43 | 0.08 | 79 | 1010.2 |
| 20260505041334 | 12 | 61 | 0.0 | 0.0 | 0.00 | 0.38 | 0.03 | 79 | 1010.4 |
| 20260505040334 | 12 | 61 | 0.0 | 0.0 | 0.00 | 0.38 | 0.03 | 79 | 1010.5 |
| 20260505035334 | 12 | 61 | 0.0 | 0.0 | 0.00 | 0.38 | 0.03 | 79 | 1010.6 |
| 20260505034334 | 12 | 61 | 0.0 | 0.0 | 0.00 | 0.38 | 0.03 | 79 | 1010.6 |
| 20260505033334 | 12 | 61 | 0.0 | 0.0 | 0.00 | 0.38 | 0.03 | 79 | 1010.6 |
| 20260505032334 | 12 | 61 | 0.0 | 0.0 | 0.00 | 0.38 | 0.03 | 79 | 1010.6 |
| 20260505031334 | 12 | 61 | 0.0 | 0.0 | 0.00 | 0.38 | 0.03 | 79 | 1010.7 |
| 20260505030334 | 12 | 61 | 0.0 | 0.0 | 0.00 | 0.38 | 0.03 | 79 | 1010.6 |
| 20260505025334 | 12 | 61 | 0.0 | 0.0 | 0.00 | 0.38 | 0.03 | 79 | 1010.8 |
| 20260505024334 | 12 | 61 | 0.0 | 0.0 | 0.00 | 0.38 | 0.03 | 79 | 1010.9 |
| 20260505023334 | 12 | 61 | 0.0 | 0.0 | 0.00 | 0.38 | 0.03 | 79 | 1010.9 |
| 20260505022334 | 12 | 61 | 0.0 | 0.0 | 0.00 | 0.38 | 0.03 | 79 | 1011.0 |
| 20260505021334 | 12 | 61 | 0.0 | 0.0 | 0.00 | 0.38 | 0.03 | 79 | 1011.1 |
| 20260505020335 | 12 | 61 | 0.0 | 0.0 | 0.00 | 0.38 | 0.03 | 79 | 1011.0 |
| 20260505015335 | 12 | 61 | 0.0 | 0.0 | 0.00 | 0.38 | 0.03 | 78 | 1011.1 |
| 20260505014335 | 12 | 61 | 0.0 | 0.0 | 0.00 | 0.38 | 0.03 | 79 | 1011.1 |
| 20260505013335 | 12 | 61 | 0.0 | 0.0 | 0.00 | 0.38 | 0.03 | 79 | 1011.1 |
| 20260505012335 | 12 | 61 | 0.0 | 0.0 | 0.00 | 0.38 | 0.03 | 79 | 1011.2 |
| 20260505011335 | 12 | 61 | 0.0 | 0.0 | 0.00 | 0.38 | 0.03 | 79 | 1011.3 |
| 20260505010335 | 12 | 61 | 0.0 | 0.0 | 0.00 | 0.38 | 0.03 | 79 | 1011.4 |
| 20260505005335 | 12 | 61 | 0.0 | 0.0 | 0.00 | 0.38 | 0.03 | 79 | 1011.4 |
| 20260505004335 | 12 | 61 | 0.0 | 0.0 | 0.00 | 0.38 | 0.03 | 79 | 1011.4 |
| 20260505003335 | 12 | 61 | 0.0 | 0.0 | 0.03 | 0.38 | 0.03 | 79 | 1011.4 |
| 20260505002335 | 12 | 61 | 0.0 | 0.0 | 0.03 | 0.38 | 0.03 | 79 | 1011.6 |
| 20260505001335 | 12 | 61 | 0.0 | 0.0 | 0.03 | 0.38 | 0.03 | 79 | 1011.7 |
| 20260505000335 | 12 | 61 | 1.6 | 0.0 | 0.03 | 0.38 | 0.03 | 79 | 1011.6 |
| 20260504235335 | 12 | 61 | 3.2 | 8.0 | 0.03 | 0.38 | 0.03 | 80 | 1011.5 |
| 20260504234335 | 12 | 41 | 4.8 | 8.0 | 0.03 | 0.38 | 0.03 | 80 | 1011.5 |
| 20260504233335 | 12 | 65 | 0.0 | 6.4 | 0.00 | 0.36 | 0.00 | 80 | 1011.9 |
| 20260504232335 | 12 | 93 | 0.0 | 0.0 | 0.00 | 0.36 | 0.00 | 80 | 1012.0 |
| 20260504231335 | 12 | 93 | 0.0 | 0.0 | 0.00 | 0.36 | 0.00 | 80 | 1012.3 |
| 20260504230335 | 12 | 93 | 0.0 | 0.0 | 0.00 | 0.36 | 0.00 | 80 | 1012.4 |
| 20260504225335 | 12 | 93 | 0.0 | 0.0 | 0.00 | 0.36 | 0.00 | 80 | 1012.5 |
| 20260504224335 | 12 | 93 | 0.0 | 0.0 | 0.00 | 0.36 | 0.00 | 80 | 1012.6 |
| 20260504223335 | 12 | 93 | 0.0 | 0.0 | 0.00 | 0.36 | 0.00 | 80 | 1012.6 |
| 20260504222335 | 12 | 93 | 0.0 | 0.0 | 0.00 | 0.36 | 0.00 | 80 | 1012.6 |
| 20260504221335 | 12 | 93 | 0.0 | 1.6 | 0.00 | 0.36 | 0.36 | 80 | 1012.6 |
| 20260504220335 | 12 | 93 | 0.0 | 0.0 | 0.00 | 0.36 | 0.36 | 81 | 1012.6 |
| 20260504215335 | 12 | 93 | 0.0 | 0.0 | 0.00 | 0.36 | 0.36 | 80 | 1012.6 |
| 20260504214335 | 12 | 93 | 0.0 | 0.0 | 0.00 | 0.36 | 0.36 | 81 | 1012.7 |
| 20260504213335 | 13 | 93 | 0.0 | 0.0 | 0.00 | 0.36 | 0.36 | 81 | 1012.7 |
| 20260504212335 | 13 | 93 | 1.6 | 3.2 | 0.00 | 0.36 | 0.36 | 81 | 1012.8 |
| 20260504211335 | 13 | 107 | 0.0 | 3.2 | 0.03 | 0.36 | 0.36 | 81 | 1012.8 |
| 20260504210335 | 13 | 107 | 0.0 | 3.2 | 0.05 | 0.36 | 0.36 | 81 | 1013.0 |
| 20260504205335 | 13 | 107 | 0.0 | 0.0 | 0.08 | 0.36 | 0.36 | 81 | 1013.2 |
| 20260504204335 | 13 | 107 | 0.0 | 0.0 | 0.15 | 0.36 | 0.36 | 81 | 1013.3 |
| 20260504203335 | 13 | 107 | 0.0 | 0.0 | 0.18 | 0.36 | 0.36 | 81 | 1013.6 |
| 20260504202335 | 13 | 107 | 0.0 | 1.6 | 0.25 | 0.36 | 0.36 | 81 | 1013.5 |
| 20260504201335 | 13 | 106 | 0.0 | 1.6 | 0.33 | 0.33 | 0.33 | 82 | 1013.3 |
| 20260504200335 | 13 | 106 | 0.0 | 1.6 | 0.30 | 0.30 | 0.30 | 82 | 1013.2 |
| 20260504195335 | 13 | 106 | 1.6 | 3.2 | 0.28 | 0.28 | 0.28 | 82 | 1013.3 |
| 20260504194335 | 13 | 106 | 0.0 | 1.6 | 0.23 | 0.23 | 0.23 | 82 | 1013.2 |
| 20260504193335 | 13 | 106 | 0.0 | 0.0 | 0.18 | 0.18 | 0.18 | 82 | 1013.0 |
| 20260504192335 | 13 | 106 | 0.0 | 0.0 | 0.10 | 0.10 | 0.10 | 82 | 1013.0 |
| 20260504191335 | 14 | 106 | 0.0 | 0.0 | 0.03 | 0.03 | 0.03 | 83 | 1013.0 |
| 20260504190335 | 14 | 106 | 0.0 | 3.2 | 0.00 | 0.00 | 0.00 | 83 | 1013.0 |
| 20260504185335 | 14 | 106 | 1.6 | 3.2 | 0.00 | 0.00 | 0.00 | 84 | 1013.1 |
| 20260504184335 | 15 | 233 | 0.0 | 3.2 | 0.00 | 0.00 | 0.00 | 84 | 1013.1 |
| 20260504183336 | 15 | 233 | 1.6 | 3.2 | 0.00 | 0.00 | 0.00 | 85 | 1013.2 |
| 20260504182336 | 15 | 236 | 3.2 | 6.4 | 0.00 | 0.00 | 0.00 | 84 | 1012.9 |
| 20260504181336 | 16 | 265 | 3.2 | 9.7 | 0.00 | 0.00 | 0.00 | 82 | 1012.7 |
| 20260504180336 | 16 | 230 | 6.4 | 9.7 | 0.00 | 0.00 | 0.00 | 78 | 1012.7 |
| 20260504175336 | 16 | 261 | 6.4 | 12.9 | 0.00 | 0.00 | 0.00 | 75 | 1012.3 |
| 20260504174336 | 17 | 327 | 6.4 | 14.5 | 0.00 | 0.00 | 0.00 | 75 | 1012.2 |
| 20260504173336 | 17 | 236 | 6.4 | 8.0 | 0.00 | 0.00 | 0.00 | 73 | 1012.0 |
| 20260504172336 | 17 | 252 | 4.8 | 9.7 | 0.00 | 0.00 | 0.00 | 74 | 1011.9 |
| 20260504171336 | 17 | 72 | 0.0 | 0.0 | 0.00 | 0.00 | 0.00 | 75 | 1011.6 |
| 20260504170336 | 17 | 73 | 0.0 | 0.0 | 0.00 | 0.00 | 0.00 | 75 | 1011.5 |
| 20260504160336 | 20 | 280 | 1.6 | 9.7 | 0.00 | 0.00 | 0.00 | 69 | 1011.6 |
| 20260504150336 | 20 | 45 | 0.0 | 4.8 | 0.00 | 0.00 | 0.00 | 58 | 1011.7 |
| 20260504140336 | 21 | 275 | 4.8 | 11.3 | 0.00 | 0.00 | 0.00 | 55 | 1011.9 |
| 20260504130336 | 20 | 44 | 6.4 | 11.3 | 0.00 | 0.00 | 0.00 | 61 | 1012.3 |
| 20260504110337 | 18 | 262 | 6.4 | 9.7 | 0.00 | 0.00 | 0.00 | 63 | 1013.1 |
| 20260504100337 | 17 | 226 | 9.7 | 17.7 | 0.00 | 0.00 | 0.00 | 69 | 1013.7 |
| 20260504081337 | 15 | 290 | 1.6 | 6.4 | 0.00 | 0.00 | 0.00 | 75 | 1014.1 |
| 20260504080337 | 15 | 263 | 4.8 | 6.4 | 0.00 | 0.00 | 0.00 | 75 | 1014.1 |